星链-2029 (STARLINK-2029 )

导读

STARLINK-2029是美国太空探索技术公司(SpaceX)星链(Starlink)计划的卫星,于2021年4月29日发射入轨,属于星链互联网星座的组网卫星,旨在为全球提供高速低延迟卫星互联网服务,工作在近地轨道,是星链大规模部署中一颗典型的第二代星链卫星。

Basic Information
目录编号:
48320
目录名称:
STARLINK-2029
国际标识:
2021-036AW
轨道中心:
EARTH
卫星名称:
星链-2029
卫星全名:
星链-2029 (STARLINK-2029 )
卫星状态:
在轨 (已飞行1954 天)
发射日期:
2021-04-29 UTC
国别 :
美国 (US)
星等 :
--
Orbit Information
数据来源 国际轨道数据 AOE轨道数据
星历时间 2026-09-04T01:39:31+0800
12小时前
查看轨道信息
2026-09-02T16:00:00+0800
1天前
查看轨道信息
半长轴 6848.844km 6848.871km
偏心率 0.0001479 0.0001639
轨道倾角 53.161° 53.162°
近地点辐角 77.168° 64.219°
升交点赤经 352.887° 359.413°
平近点角 282.949° 118.317°
近地点 469.694km 469.611km
远地点 471.72km 471.857km
周期 94.012分钟 94.013分钟
每日圈数 15.317114 15.317022
Detailed Information
固有亮度:
5
最大亮度:
2.5
卫星平台:
Starlink V1.0
覆盖范围:
全球
运营商:
太空探索技术公司
运营商所在国:
美国
制造商(研发单位):
太空探索技术公司
制造商所在国:
美国
使用方式:
暂无
Satellite Introduction
星链(Starlink)计划是由太空探索技术公司(SpaceX)提出的一个巨型低轨卫星互联网星座项目,计划在2019年至2024年间在太空搭建由约1.2万颗卫星组成的“星链”网络,其中1584颗将部署在地球上空550千米处的近地轨道,并从2020年开始工作。该卫星仍在工作。
2D Orbit Map
3D Orbit Map
Orbit Altitude Analysis Chart
Orbit Inclination Analysis Chart
Orbit Comprehensive Analysis Chart
View Comprehensive Chart
Conjunction Data List
Event ID Objects TCA Miss Dist (km) Collision Risk Probability Collision Risk Index (CRI) Action
CDM_260905-021104-832006-543921
2026-09-05T
02:11:02+0000
2.446 km
极远距离
1.660355E-6 低风险 0.39
CDM_260903-022604-832006-935121
2026-09-03T
02:26:19+0000
2.930 km
极远距离
1.134264E-6 低风险 0.36
CDM_260905-140604-832005-718221
OBJECT S (57182)
2026-09-05T
14:06:47+0000
2.703 km
极远距离
9.906548E-7 极低风险 0.35